When you browse on this site, cookies collect data to enhance your experience and personalize the content and advertising you see.
Visit our Privacy Policy to learn more. By continuing to use the site, you agree to this use of cookies and data.
  • In Deutschland
  • Länderverzeichnis
  • Für 7 Tage
  • Wassertemperatur
  • Satellitenkarten
  • Wetterkarte
  • Widgets
  • user-avatar
    Anmelden

    Stündliche Wetter Hamburg

    Heute, 16 Januar, Mittwoch

    Zeit Temperatur Niederschläge Wind Luftdruck Luftfeuchtigkeit
    00:00 +5°C° 0.2 mm 7 m/S 755 mmHg 88%
    01:00 +5°C° 0 mm 6 m/S 755 mmHg 88%
    02:00 +5°C° 0 mm 6 m/S 755 mmHg 87%
    03:00 +5°C° 0 mm 6 m/S 754 mmHg 86%
    04:00 +5°C° 0 mm 6 m/S 754 mmHg 86%
    05:00 +5°C° 0.1 mm 6 m/S 754 mmHg 86%
    06:00 +5°C° 0.1 mm 6 m/S 754 mmHg 86%
    07:00 +6°C° 0 mm 4 m/S 754 mmHg 87%
    08:00 +6°C° 0 mm 5 m/S 753 mmHg 87%
    09:00 +6°C° 0 mm 5 m/S 753 mmHg 87%
    10:00 +5°C° 0 mm 6 m/S 753 mmHg 86%
    11:00 +5°C° 0.1 mm 6 m/S 753 mmHg 86%
    12:00 +5°C° 0.1 mm 6 m/S 752 mmHg 85%
    13:00 +6°C° 0 mm 5 m/S 752 mmHg 85%
    14:00 +5°C° 0.1 mm 6 m/S 751 mmHg 84%
    15:00 +5°C° 0.1 mm 6 m/S 751 mmHg 83%
    16:00 +4°C° 0.1 mm 7 m/S 750 mmHg 82%
    17:00 +4°C° 0.2 mm 7 m/S 750 mmHg 82%
    18:00 +4°C° 0.2 mm 7 m/S 749 mmHg 82%
    19:00 +3°C° 0.2 mm 7 m/S 749 mmHg 82%
    20:00 +3°C° 0.5 mm 7 m/S 748 mmHg 83%
    21:00 +3°C° 0.5 mm 7 m/S 748 mmHg 83%
    22:00 +3°C° 0.5 mm 7 m/S 747 mmHg 84%
    23:00 +3°C° 0.5 mm 7 m/S 747 mmHg 84%

    Morgen, 17 Januar, Donnerstag

    Zeit Temperatur Niederschläge Wind Luftdruck Luftfeuchtigkeit
    00:00 +3°C° 0.5 mm 7 m/S 746 mmHg 85%
    01:00 +3°C° 0.5 mm 7 m/S 746 mmHg 85%
    02:00 +3°C° 0.5 mm 6 m/S 745 mmHg 86%
    03:00 +3°C° 0.5 mm 6 m/S 745 mmHg 86%
    04:00 +3°C° 0.5 mm 5 m/S 745 mmHg 87%
    05:00 +3°C° 0 mm 5 m/S 745 mmHg 86%
    06:00 +2°C° 0 mm 6 m/S 745 mmHg 85%
    07:00 +2°C° 0 mm 6 m/S 745 mmHg 84%
    08:00 +2°C° 0 mm 6 m/S 746 mmHg 83%
    09:00 +2°C° 0 mm 7 m/S 746 mmHg 82%
    10:00 +2°C° 0 mm 7 m/S 746 mmHg 81%
    11:00 +2°C° 0 mm 7 m/S 746 mmHg 78%
    12:00 +3°C° 0 mm 7 m/S 746 mmHg 75%
    13:00 +3°C° 0 mm 7 m/S 746 mmHg 72%
    14:00 +2°C° 0 mm 6 m/S 747 mmHg 70%
    15:00 +2°C° 0 mm 5 m/S 747 mmHg 69%
    16:00 +2°C° 0 mm 5 m/S 747 mmHg 68%
    17:00 +1°C° 0 mm 5 m/S 748 mmHg 70%
    18:00 +1°C° 0 mm 4 m/S 748 mmHg 72%
    19:00 0°C° 0 mm 4 m/S 749 mmHg 74%
    20:00 0°C° 0.1 mm 4 m/S 750 mmHg 75%
    21:00 -1°C° 0.1 mm 4 m/S 751 mmHg 76%
    22:00 -1°C° 0.1 mm 4 m/S 752 mmHg 76%
    23:00 -1°C° 0 mm 4 m/S 753 mmHg 76%

    übermorgen, 18 Januar, Freitag

    Zeit Temperatur Niederschläge Wind Luftdruck Luftfeuchtigkeit
    00:00 -2°C° 0 mm 4 m/S 754 mmHg 75%
    01:00 -2°C° 0 mm 4 m/S 755 mmHg 74%
    02:00 -3°C° 0 mm 4 m/S 756 mmHg 73%
    03:00 -2°C° 0 mm 3 m/S 757 mmHg 72%
    04:00 -2°C° 0 mm 3 m/S 758 mmHg 70%
    05:00 -2°C° 0 mm 3 m/S 759 mmHg 70%
    06:00 -2°C° 0 mm 2 m/S 759 mmHg 70%
    07:00 -3°C° 0 mm 2 m/S 760 mmHg 70%
    08:00 -2°C° 0 mm 2 m/S 760 mmHg 68%
    09:00 -1°C° 0 mm 3 m/S 761 mmHg 66%
    10:00 0°C° 0 mm 3 m/S 761 mmHg 65%
    11:00 +1°C° 0 mm 3 m/S 762 mmHg 65%
    12:00 +1°C° 0 mm 4 m/S 762 mmHg 65%
    13:00 +3°C° 0 mm 4 m/S 762 mmHg 65%
    14:00 +3°C° 0 mm 4 m/S 762 mmHg 69%
    15:00 +2°C° 0 mm 3 m/S 762 mmHg 73%
    16:00 +2°C° 0 mm 3 m/S 762 mmHg 78%
    17:00 +1°C° 0 mm 3 m/S 762 mmHg 81%
    18:00 0°C° 0 mm 3 m/S 762 mmHg 84%
    19:00 0°C° 0 mm 3 m/S 763 mmHg 88%
    20:00 0°C° 0 mm 3 m/S 763 mmHg 88%
    21:00 -1°C° 0 mm 2 m/S 763 mmHg 89%
    22:00 -1°C° 0 mm 2 m/S 763 mmHg 90%
    23:00 -1°C° 0 mm 2 m/S 763 mmHg 90%

    19 Januar, Samstag

    Zeit Temperatur Niederschläge Wind Luftdruck Luftfeuchtigkeit
    00:00 -1°C° 0 mm 2 m/S 763 mmHg 90%
    01:00 -1°C° 0 mm 2 m/S 763 mmHg 90%
    02:00 -2°C° 0 mm 2 m/S 763 mmHg 90%
    03:00 -2°C° 0 mm 2 m/S 763 mmHg 90%
    04:00 -2°C° 0 mm 2 m/S 763 mmHg 90%
    05:00 0°C° 0 mm 1 m/S 763 mmHg 89%
    06:00 0°C° 0 mm 1 m/S 763 mmHg 87%
    07:00 0°C° 0 mm 1 m/S 763 mmHg 86%
    08:00 0°C° 0 mm 1 m/S 763 mmHg 82%
    09:00 +1°C° 0 mm 1 m/S 763 mmHg 78%
    10:00 +1°C° 0 mm 1 m/S 763 mmHg 74%
    11:00 +2°C° 0 mm 1 m/S 763 mmHg 69%
    12:00 +3°C° 0 mm 1 m/S 763 mmHg 63%
    13:00 +4°C° 0 mm 1 m/S 762 mmHg 58%
    14:00 +3°C° 0 mm 1 m/S 762 mmHg 61%
    15:00 +3°C° 0 mm 1 m/S 762 mmHg 64%
    16:00 +2°C° 0 mm 1 m/S 762 mmHg 67%
    17:00 -1°C° 0 mm 2 m/S 762 mmHg 70%
    18:00 -1°C° 0 mm 2 m/S 762 mmHg 72%
    19:00 -2°C° 0 mm 2 m/S 762 mmHg 75%
    20:00 -2°C° 0 mm 2 m/S 762 mmHg 74%
    21:00 -2°C° 0 mm 2 m/S 762 mmHg 72%
    22:00 -3°C° 0 mm 2 m/S 762 mmHg 71%
    23:00 -3°C° 0 mm 2 m/S 762 mmHg 70%

    20 Januar, Sonntag

    Zeit Temperatur Niederschläge Wind Luftdruck Luftfeuchtigkeit
    00:00 -3°C° 0 mm 2 m/S 762 mmHg 69%
    01:00 -3°C° 0 mm 2 m/S 762 mmHg 68%
    02:00 -3°C° 0 mm 2 m/S 762 mmHg 67%
    03:00 -3°C° 0 mm 2 m/S 762 mmHg 66%
    04:00 -3°C° 0 mm 2 m/S 762 mmHg 65%
    05:00 -3°C° 0 mm 2 m/S 762 mmHg 65%
    06:00 -3°C° 0 mm 2 m/S 762 mmHg 65%
    07:00 -4°C° 0 mm 2 m/S 762 mmHg 65%
    08:00 -3°C° 0 mm 2 m/S 762 mmHg 62%
    09:00 -3°C° 0 mm 2 m/S 763 mmHg 59%
    10:00 -2°C° 0 mm 2 m/S 763 mmHg 57%
    11:00 -1°C° 0 mm 2 m/S 763 mmHg 52%
    12:00 +2°C° 0 mm 1 m/S 763 mmHg 48%
    13:00 +3°C° 0 mm 1 m/S 764 mmHg 44%
    14:00 +2°C° 0 mm 1 m/S 764 mmHg 47%
    15:00 +1°C° 0 mm 1 m/S 764 mmHg 49%
    16:00 +1°C° 0 mm 1 m/S 764 mmHg 52%
    17:00 0°C° 0 mm 1 m/S 765 mmHg 55%
    18:00 0°C° 0 mm 1 m/S 765 mmHg 58%
    19:00 -1°C° 0 mm 1 m/S 765 mmHg 61%
    20:00 -1°C° 0 mm 1 m/S 766 mmHg 64%
    21:00 -1°C° 0 mm 1 m/S 766 mmHg 68%
    22:00 -1°C° 0 mm 1 m/S 767 mmHg 71%
    23:00 -1°C° 0 mm 1 m/S 767 mmHg 74%

    21 Januar, Montag

    Zeit Temperatur Niederschläge Wind Luftdruck Luftfeuchtigkeit
    00:00 -1°C° 0 mm 1 m/S 767 mmHg 77%
    01:00 -2°C° 0 mm 0 m/S 767 mmHg 80%
    02:00 -1°C° 0 mm 1 m/S 768 mmHg 83%
    03:00 -1°C° 0 mm 1 m/S 768 mmHg 86%
    04:00 -1°C° 0 mm 1 m/S 768 mmHg 89%
    05:00 -1°C° 0 mm 1 m/S 768 mmHg 90%
    06:00 -1°C° 0 mm 1 m/S 768 mmHg 91%
    07:00 -1°C° 0 mm 1 m/S 768 mmHg 92%
    08:00 -1°C° 0 mm 1 m/S 769 mmHg 88%
    09:00 -1°C° 0 mm 1 m/S 769 mmHg 84%
    10:00 0°C° 0 mm 1 m/S 770 mmHg 80%
    11:00 +1°C° 0 mm 1 m/S 769 mmHg 73%
    12:00 +1°C° 0 mm 1 m/S 769 mmHg 65%
    13:00 +2°C° 0 mm 1 m/S 769 mmHg 58%
    14:00 +2°C° 0 mm 1 m/S 769 mmHg 59%
    15:00 +1°C° 0 mm 1 m/S 769 mmHg 61%
    16:00 0°C° 0 mm 1 m/S 768 mmHg 63%
    17:00 0°C° 0 mm 1 m/S 768 mmHg 65%
    18:00 -3°C° 0 mm 2 m/S 768 mmHg 68%
    19:00 -4°C° 0 mm 2 m/S 768 mmHg 71%
    20:00 -4°C° 0 mm 2 m/S 768 mmHg 72%
    21:00 -4°C° 0 mm 2 m/S 767 mmHg 74%
    22:00 -4°C° 0 mm 2 m/S 767 mmHg 76%
    23:00 -4°C° 0 mm 2 m/S 766 mmHg 76%
    Mehr zeigen